Simultaneous Nadir Overpasses (SNOs) Predictions

Prediction of SNOs between NOAA-19 and NPP Satellite Orbit:

Table of predicted SNOs for the next 14.0 days since TLE Epoch: 8/6/2016
Index Date (NOAA-19) Time (NOAA-19) Lat,Lon (NOAA-19) SZA (NOAA-19 ) Date (NPP) Time (NPP) Lat,Lon (NPP) SZA (NPP ) Distance(km) Time Diff (sec)
1 08/12/2016 19:49:19 -80.98, 9.69 109.82 08/12/2016 19:50:21 -80.99, 9.66 109.84 1.26 62
2 08/12/2016 20:40:16 80.98, 177.30 70.16 08/12/2016 20:41:05 80.98, 177.24 70.14 1.31 49
3 08/12/2016 21:31:20 -80.98, -15.44 109.84 08/12/2016 21:31:50 -80.97, -15.40 109.87 1.13 30
4 08/12/2016 22:22:18 80.98, 151.79 70.18 08/12/2016 22:22:35 80.98, 151.81 70.16 0.51 17
5 08/12/2016 23:13:22 -80.98, -40.95 109.82 08/12/2016 23:13:20 -80.98, -40.83 109.84 2.28 2
6 08/13/2016 00:04:20 80.98, 126.28 70.20 08/13/2016 00:04:05 80.98, 126.39 70.19 1.95 15
7 08/13/2016 00:55:23 -80.98, -66.09 109.85 08/13/2016 00:54:50 -80.98, -66.25 109.81 2.98 33
8 08/13/2016 01:46:21 80.98, 101.14 70.17 08/13/2016 01:45:35 80.98, 100.96 70.22 3.10 46




NCC Satellite Simultaneous Nadir Overpasses (SNOs) Prediction Service
